Tracking 32579 objects as of 16-Dec-2025
HD Live streaming from Space Station
objects crossing your sky now

OBJECT W

Track OBJECT W now!
10-day predictions


NORAD ID: 56866
Int'l Code: 2023-081W
Perigee: 499.1 km
Apogee: 513.1 km
Inclination: 97.3 °
Period: 94.6 minutes
Semi major axis: 6877 km
RCS: Unknown
Launch date: June 7, 2023
Source: (TBD)
Launch site: Jiuquan Satellite Launch Center, China (JSC)
Your satellite tracking list
Your tracking list is empty




NASA's NSSDC Master Catalog

Two Line Element Set (TLE):
1 56866U 23081W   25349.97619229  .00005931  00000-0  26024-3 0  9998
2 56866  97.3166  53.4022 0010237 301.4433  58.5802 15.22280236140130
Source of the keplerian elements: AFSPC